Location: Unspecified
(0.0000°N, 0.0000°E)
Time: 23:41:05
(UTC+00:00)

X-37B - Pass Details

Date: 19 January 2022
Orbit: 334 x 337 km, 45.0° (Epoch: 11 January)

Event Time Altitude Azimuth Distance (km) Brightness Sun altitude
Rises 19:28:32 0° 251° (WSW) 2,094 6.0 -18.2°
Reaches altitude 10° 19:31:12 10° 280° (W) 1,256 4.0 -18.8°
Maximum altitude 19:32:44 14° 313° (NW) 1,070 3.1 -19.2°
Enters shadow 19:33:35 12° 333° (NNW) 1,128 3.0 -19.4°
